Flag for Ethiopia Weather past 2 weeks in Adama, Ethiopia

Now
59 °F

Passing clouds.


Feels Like: 59 °F
Forecast: 59 / 76 °F
Wind: 2 mph from East

Location: Addis Ababa Airport

Current Time: Jul 31, 2014 at 4:44:14 AM

Latest Report: Jul 31, 2014 at 4:00 AM


Visibility: N/A

Pressure: 30.33 "Hg

Humidity: 88%

Dew point: 55 °F

Location of AdamaLocation

Historic Weather in Adama — Graph

°F

Adama temperature yesterday

Maximum temperature yesterday: 68 °F (at 3:00 PM)
Minimum temperature yesterday: 57 °F (at 2:00 AM)
Average temperature yesterday: 61 °F

Past Weeks' High & Low Weather Summary

 TemperatureHumidityPressure
High75 °F (Jul 23, 5:00 PM)100% (Jul 18, 7:00 AM)30.48 "Hg (Jul 18, 7:00 AM)
Low54 °F (Jul 20, 9:00 AM)49% (Jul 23, 1:00 PM)30.24 "Hg (Jul 23, 4:00 PM)
Average61 °F79%30.35 "Hg
* Reported Jul 16 4:00 AM — Jul 31 4:00 AM, Adama, Weather by CustomWeather, © 2014

Note: Actual official high and low records may vary slightly from our data, if they occured in-between our weather recording intervals... More about our weather records

Advertising

Adama weather history for previous 24 hours

 ConditionsComfort  
Time TempWeatherWind HumidityBarometerVisibility
4:00 AM
Jul 31
59 °FPassing clouds.2 mph88%30.33 "HgN/A
3:00 AM59 °FPartly cloudy.2 mph88%30.36 "HgN/A
2:00 AM59 °FPartly cloudy.5 mph88%30.36 "HgN/A
12:00 AM59 °FPassing clouds.5 mph88%30.39 "HgN/A
11:00 PM
Jul 30
61 °FPartly cloudy.5 mph83%30.39 "HgN/A
10:00 PM61 °FPartly cloudy.5 mph88%30.36 "HgN/A
9:00 PM61 °FPartly cloudy.2 mph88%30.36 "HgN/A
8:00 PM63 °FPartly cloudy.7 mph83%30.33 "HgN/A
7:00 PM64 °FPassing clouds.12 mph78%30.30 "HgN/A
6:00 PM64 °FPartly sunny.12 mph83%30.30 "HgN/A
5:00 PM66 °FPartly sunny.12 mph73%30.30 "HgN/A
4:00 PM68 °FPartly sunny.12 mph78%30.30 "HgN/A
3:00 PM68 °FPartly sunny.7 mph78%30.30 "HgN/A
2:00 PM64 °FPartly sunny.7 mph78%30.33 "HgN/A
1:00 PM61 °FMostly cloudy.9 mph83%30.36 "HgN/A
12:00 PM63 °FFog.9 mph77%30.39 "Hg5 mi
11:00 AM59 °FFog.7 mph88%30.39 "Hg5 mi
10:00 AM59 °FDrizzle. Partly sunny.9 mph88%30.42 "Hg2 mi
9:00 AM57 °FFog.6 mph88%30.39 "Hg3 mi
8:00 AM57 °FFog.3 mph88%30.36 "Hg5 mi
7:00 AM57 °FCool.5 mph82%30.33 "HgN/A
6:00 AM57 °FPassing clouds.2 mph82%30.30 "HgN/A
4:00 AM57 °FPassing clouds.5 mph88%30.30 "HgN/A
Weather by CustomWeather, © 2014

See weather overviewHow to use our weather pages